Weather History for KVOK - January, 2014

Change the Weather History Date:

Monday, January 6, 2014

  Actual Average Record
Temperature  
Mean Temperature -18 °F -  
Max Temperature -12 °F 24 °F 10 °F (2015)
Min Temperature -23 °F 13 °F -12 °F (2015)
Degree Days  
Heating Degree Days 82    
Moisture  
Dew Point -26 °F    
Average Humidity 63    
Maximum Humidity 72    
Minimum Humidity 54    
Precipitation  
Precipitation 0.00 in - - ()
Sea Level Pressure  
Sea Level Pressure 30.20 in    
Wind  
Wind Speed 16 mph (WNW)    
Max Wind Speed 23 mph    
Max Gust Speed 26 mph    
Visibility 10 miles    
Events Snow    
Averages and records for this station are not official NWS values.
T = Trace of Precipitation, MM = Missing Value Source: NWS Daily Summary

Daily Weather History Graph

Daily Weather History Graph

Search for Another Location

Airport or City:

Trip Planner

Search our weather history database for the weather conditions in past years. The results will help you decide how hot, cold, wet, or windy it might be!

Date:

Astronomy

Jan. 06, 2014 Rise Set
Actual Time 7:35 AM CST 4:38 PM CST
Civil Twilight 7:02 AM CST 5:11 PM CST
Nautical Twilight 6:26 AM CST 5:47 PM CST
Astronomical Twilight 5:51 AM CST 6:22 PM CST
Moon 10:37 AM CST (1/6) 11:26 PM CST (1/6)
Length of Visible Light 10h 08m
Length of Day
9h 03m
Waxing Crescent, 35% of the Moon is Illuminated
Jan 6
Waxing Crescent
Jan 7
First Quarter
Jan 15
Full
Jan 23
Last Quarter
Jan 30
New

Hourly Weather History & Observations

Time (CST) Temp. Windchill Dew Point Humidity Pressure Visibility Wind Dir Wind Speed Gust Speed Precip Events Conditions
12:58 AM -14.1 °F -38.2 °F -22.0 °F 68% 30.22 in 10.0 mi WNW 16.1 mph 23.0 mph -   Clear
1:58 AM -14.3 °F -38.4 °F -23.3 °F 64% 30.23 in 10.0 mi WNW 16.1 mph - -   Clear
2:44 AM -14.8 °F -39.1 °F -23.8 °F 64% 30.13 in 10.0 mi WNW 16.1 mph 21.9 mph N/A Snow Light Snow
2:49 AM -14.8 °F -40.5 °F -23.8 °F 64% 30.13 in 8.0 mi WNW 18.4 mph 21.9 mph N/A Snow Light Snow
2:54 AM -14.8 °F -37.5 °F -23.8 °F 64% 30.14 in 8.0 mi WNW 13.8 mph 21.9 mph N/A Snow Light Snow
2:58 AM -14.8 °F -41.2 °F -23.6 °F 65% 30.23 in 9.0 mi WNW 19.6 mph 23.0 mph - Snow Light Snow
3:03 AM -14.8 °F -40.5 °F -23.8 °F 64% 30.13 in 10.0 mi WNW 18.4 mph 23.0 mph N/A Snow Light Snow
3:04 AM -14.8 °F -40.5 °F -23.8 °F 64% 30.13 in 10.0 mi WNW 18.4 mph 23.0 mph N/A   Scattered Clouds
3:42 AM -14.8 °F -40.5 °F -23.8 °F 64% 30.12 in 10.0 mi WNW 18.4 mph - N/A Snow Light Snow
3:58 AM -15.5 °F -38.4 °F -24.0 °F 66% 30.23 in 10.0 mi WNW 13.8 mph 23.0 mph - Snow Light Snow
4:02 AM -16.6 °F -40.6 °F -23.8 °F 70% 30.13 in 10.0 mi West 15.0 mph 23.0 mph N/A   Partly Cloudy
4:48 AM -16.6 °F -41.4 °F -25.6 °F 64% 30.14 in 10.0 mi WNW 16.1 mph 23.0 mph N/A Snow Light Snow
4:58 AM -17.3 °F -42.3 °F -26.3 °F 64% 30.25 in 10.0 mi WNW 16.1 mph 25.3 mph - Snow Light Snow
4:59 AM -18.4 °F -42.9 °F -27.4 °F 63% 30.14 in 10.0 mi WNW 15.0 mph 25.3 mph N/A   Clear
5:28 AM -18.4 °F -44.5 °F -27.4 °F 63% 30.14 in 9.0 mi WNW 17.3 mph 19.6 mph N/A Snow Light Snow
5:37 AM -18.4 °F -47.7 °F -27.4 °F 63% 30.14 in 10.0 mi WNW 23.0 mph - N/A   Partly Cloudy
5:50 AM -20.2 °F -44.4 °F -29.2 °F 63% 30.14 in 10.0 mi WNW 13.8 mph - N/A Snow Light Snow
5:55 AM -20.2 °F -47.5 °F -29.2 °F 63% 30.14 in 9.0 mi WNW 18.4 mph 23.0 mph N/A Snow Light Snow
5:58 AM -20.2 °F -46.0 °F -29.2 °F 63% 30.25 in 9.0 mi WNW 16.1 mph 23.0 mph - Snow Light Snow
6:00 AM -20.2 °F -48.9 °F -29.2 °F 63% 30.14 in 10.0 mi West 20.7 mph 26.5 mph N/A   Scattered Clouds
6:20 AM -20.2 °F -46.0 °F -29.2 °F 63% 30.15 in 10.0 mi WNW 16.1 mph 23.0 mph N/A   Mostly Cloudy
6:25 AM -20.2 °F -43.4 °F -29.2 °F 63% 30.15 in 10.0 mi WNW 12.7 mph 23.0 mph N/A   Scattered Clouds
6:58 AM -22.2 °F -48.6 °F -29.9 °F 67% 30.27 in 10.0 mi WNW 16.1 mph 25.3 mph -   Partly Cloudy
7:58 AM -23.4 °F -47.5 °F -29.9 °F 72% 30.28 in 10.0 mi WNW 12.7 mph - -   Clear
8:58 AM -21.8 °F -45.5 °F -29.9 °F 66% 30.28 in 10.0 mi WNW 12.7 mph - -   Clear
9:58 AM -20.4 °F -42.6 °F -29.9 °F 61% 30.28 in 10.0 mi WNW 11.5 mph 23.0 mph -   Clear
10:58 AM -17.7 °F -44.3 °F -28.1 °F 59% 30.26 in 9.0 mi West 18.4 mph 24.2 mph -   Clear
11:13 AM -18.4 °F -45.9 °F -27.4 °F 63% 30.15 in 7.0 mi West 19.6 mph 25.3 mph N/A   Mostly Cloudy
11:33 AM -16.6 °F -42.9 °F -27.4 °F 58% 30.14 in 10.0 mi WNW 18.4 mph 21.9 mph N/A   Scattered Clouds
11:58 AM -16.6 °F -42.1 °F -27.8 °F 57% 30.24 in 10.0 mi West 17.3 mph 26.5 mph -   Partly Cloudy
12:58 PM -14.6 °F -38.1 °F -26.7 °F 55% 30.22 in 10.0 mi WNW 15.0 mph 21.9 mph -   Clear
1:58 PM -13.4 °F -38.0 °F -25.6 °F 54% 30.22 in 10.0 mi West 17.3 mph - -   Clear
2:58 PM -12.6 °F -36.3 °F -24.7 °F 55% 30.23 in 10.0 mi West 16.1 mph 24.2 mph -   Clear
3:58 PM -13.2 °F -39.6 °F -24.7 °F 56% 30.23 in 10.0 mi West 20.7 mph 25.3 mph -   Clear
4:20 PM -13.0 °F -33.4 °F -23.8 °F 59% 30.13 in 10.0 mi West 11.5 mph - N/A Snow Light Snow
4:35 PM -13.0 °F -35.2 °F -23.8 °F 59% 30.13 in 10.0 mi West 13.8 mph 19.6 mph N/A   Clear
4:58 PM -14.3 °F -35.9 °F -23.4 °F 63% 30.25 in 10.0 mi West 12.7 mph - -   Clear
5:58 PM -15.3 °F -34.1 °F -24.3 °F 64% 30.25 in 10.0 mi West 9.2 mph - -   Clear
6:58 PM -15.3 °F -37.3 °F -24.0 °F 65% 30.26 in 10.0 mi West 12.7 mph - -   Clear
7:58 PM -15.3 °F -35.3 °F -23.3 °F 67% 30.26 in 10.0 mi West 10.4 mph - -   Clear
8:58 PM -15.5 °F -39.2 °F -24.0 °F 66% 30.26 in 10.0 mi West 15.0 mph 20.7 mph -   Clear
9:58 PM -16.1 °F -38.2 °F -24.0 °F 67% 30.24 in 10.0 mi West 12.7 mph - -   Clear
10:58 PM -16.4 °F -35.5 °F -24.0 °F 69% 30.25 in 10.0 mi West 9.2 mph - -   Clear
11:58 PM -16.6 °F -36.8 °F -24.2 °F 69% 30.22 in 10.0 mi West 10.4 mph - -   Clear